Wetbulb
59.17 59.27 59.45 59.53 59.64 59.69 59.67 59.45 59.22 59.21 59.37 59.71 59.99 60.15 60.23 60.22 59.70 56.92 50.59 56.35 57.67 63.39 59.80 56.17 55.96 54.97 55.37 53.79 52.98 51.78 47.45 44.62 44.86 44.42 46.16 49.46 48.36 49.33 50.57 50.26 50.13 51.70 52.51 54.67 52.78
58.72 58.81 59.03 59.21 59.33 59.50 59.57 59.51 59.33 59.19 59.13 59.15 59.31 59.58 59.96 59.76 56.20 52.80 59.84 61.63 64.20 62.03 55.33 54.30 52.83 53.63 52.64 52.04 52.95 50.79 47.06 45.95 48.23 48.30 47.27 49.03 48.75 49.94 49.10 50.28 50.87 50.62 53.31 53.21 51.85
58.41 58.49 58.68 58.88 59.12 59.41 59.55 59.53 59.42 59.28 59.08 59.03 59.01 59.16 59.33 59.17 51.33 49.61 62.80 63.20 65.23 60.45 56.16 54.69 54.53 53.02 50.29 51.53 51.42 50.11 46.85 49.45 48.39 48.44 48.15 48.31 48.69 49.78 49.19 48.46 51.17 50.94 52.40 54.10 52.47
58.47 58.54 58.65 58.77 59.04 59.48 59.61 59.63 59.76 59.62 59.20 58.95 58.88 58.90 59.16 56.52 44.10 50.98 62.76 65.02 63.90 56.94 54.79 53.49 52.75 50.53 49.48 48.52 50.57 46.69 49.56 49.55 49.65 49.05 48.41 47.92 49.65 48.39 49.46 50.46 52.70 53.27 53.73 53.13 52.49
58.70 58.64 58.71 58.75 58.93 59.45 59.71 59.73 60.06 59.99 59.42 59.02 58.75 58.61 55.46 48.24 49.49 60.07 63.91 64.51 57.50 54.78 53.57 52.49 50.91 50.43 47.78 48.48 47.98 46.93 48.79 49.57 50.22 48.94 48.83 49.70 48.36 48.83 49.27 51.93 53.01 52.91 51.78 51.09 51.96
58.69 58.51 58.46 58.61 59.02 59.35 59.54 59.59 59.67 59.72 59.12 59.01 58.69 58.06 51.23 43.56 53.38 61.41 61.35 56.03 55.30 54.49 52.93 52.80 51.34 51.82 48.68 47.70 47.26 47.85 47.54 48.01 48.41 48.13 48.43 46.46 47.96 47.04 49.00 51.47 50.53 50.59 50.73 51.50 51.08
58.67 58.33 58.11 58.34 58.96 59.34 59.33 59.50 59.20 58.83 58.70 58.77 58.85 56.16 48.63 48.35 54.90 59.07 56.20 55.04 54.38 54.12 51.35 51.83 52.07 50.69 49.69 46.83 48.22 46.79 44.31 46.72 47.26 46.79 46.05 47.05 44.45 44.77 49.86 50.12 48.78 49.55 50.56 50.82 51.13
58.25 57.89 57.84 58.19 58.61 58.98 59.21 59.15 58.03 59.04 58.53 58.23 58.61 54.89 48.05 51.27 55.74 54.44 53.36 51.65 53.26 52.93 52.14 52.07 52.27 50.49 48.62 48.68 46.11 43.92 43.29 40.91 46.23 44.14 45.14 46.12 41.70 47.33 49.79 47.52 47.68 48.98 50.02 50.47 51.12
57.85 57.61 57.87 58.29 58.34 58.40 58.74 57.76 57.97 58.80 58.67 58.13 54.42 49.79 46.91 53.24 49.83 51.07 52.62 50.32 50.90 51.07 51.71 50.84 51.44 48.29 47.24 44.22 42.25 42.98 39.23 40.35 41.68 45.30 43.70 44.28 42.23 46.93 48.47 47.37 46.76 48.05 48.85 49.44 50.19
57.88 57.81 58.10 58.33 58.28 58.34 57.45 54.88 56.98 57.01 57.20 56.76 53.11 46.74 48.60 46.69 50.02 49.65 50.71 50.84 49.07 49.76 48.82 48.77 47.89 45.08 44.08 42.52 37.31 40.70 39.82 40.21 39.30 44.20 43.86 42.25 41.76 44.44 46.24 45.94 45.76 46.99 48.00 49.05 49.63
58.40 58.41 58.61 58.43 58.47 58.59 54.62 52.90 53.85 51.09 50.70 50.31 50.94 47.48 47.31 49.25 50.91 48.44 49.81 49.11 48.90 47.50 43.86 45.61 42.70 40.59 43.74 44.25 44.15 41.79 40.29 39.38 42.20 44.47 41.71 41.55 42.07 43.89 45.77 46.00 45.81 46.47 47.31 48.54 49.29
59.12 59.03 59.02 58.53 58.32 56.15 53.71 50.48 48.14 47.89 46.47 49.56 47.80 46.99 47.40 49.29 46.19 46.82 49.90 46.40 45.27 42.56 42.36 41.59 39.51 44.53 45.06 42.40 40.92 40.78 39.10 39.04 42.43 43.69 39.84 41.35 40.63 43.43 45.14 45.61 46.82 47.18 47.38 47.90 48.38
58.64 58.39 58.41 58.43 57.48 55.63 51.14 48.75 51.18 49.96 44.47 47.02 46.12 45.20 45.98 48.25 45.61 45.09 47.44 45.91 43.67 40.59 40.81 41.15 43.69 43.70 41.16 41.28 39.41 40.54 38.23 39.50 39.55 41.76 41.67 39.23 40.20 41.27 45.69 46.59 46.93 46.39 47.30 46.69 46.61
58.37 58.01 57.95 57.14 55.35 53.47 51.20 50.09 51.13 49.05 43.06 43.94 42.72 43.95 45.18 46.01 42.12 44.59 45.91 45.31 43.05 41.15 41.25 40.97 42.71 40.14 39.73 38.97 41.02 37.36 42.99 40.19 38.28 36.75 34.96 39.54 33.72 41.57 44.34 44.73 45.78 46.00 46.56 46.77 47.27
57.36 57.65 57.43 56.37 56.99 54.61 51.88 50.82 50.87 47.41 33.66 44.10 41.51 47.62 45.34 42.53 42.23 41.77 44.80 44.80 41.26 41.17 40.86 40.68 38.96 37.77 37.83 39.62 40.52 39.60 39.85 37.88 36.74 36.35 34.86 37.10 33.52 41.26 41.02 40.74 43.84 45.25 45.64 45.25 45.64
55.55 57.14 55.60 54.97 54.94 52.64 51.47 50.68 49.47 42.43 32.78 42.20 41.76 41.06 40.73 41.22 40.55 41.67 42.50 44.35 42.51 40.05 39.97 41.07 40.52 40.62 41.33 39.97 40.10 39.95 39.01 37.89 36.55 36.08 31.11 38.34 36.14 38.83 41.03 41.21 43.01 44.26 42.67 42.88 42.36
52.80 55.26 56.07 54.82 53.12 51.95 51.68 52.76 41.62 34.90 43.89 41.13 39.55 39.65 38.74 38.33 39.09 39.29 39.32 39.05 39.03 36.43 38.10 38.89 38.33 39.95 40.04 37.83 38.42 38.41 36.78 33.15 32.34 32.53 32.05 35.24 34.01 37.51 42.68 42.14 42.04 40.65 40.10 40.45 41.13
51.40 54.25 55.17 55.64 52.92 52.29 54.55 47.26 33.80 39.30 41.21 43.58 42.37 40.02 41.00 41.04 40.51 38.52 38.01 39.66 39.27 37.42 37.03 36.18 35.37 38.01 40.20 40.71 41.26 37.10 37.79 34.30 26.60 28.97 33.01 36.03 32.10 38.93 45.19 42.23 41.34 40.21 39.75 39.55 39.12
51.12 53.14 53.53 54.69 53.38 54.80 50.16 35.45 35.98 40.41 43.64 42.02 43.34 40.03 40.40 40.46 40.46 39.46 38.54 40.19 40.65 39.65 37.14 37.07 36.52 38.73 37.64 39.05 40.48 36.57 33.67 39.46 33.19 33.77 30.03 34.18 38.42 42.72 43.11 39.57 39.83 39.19 39.00 37.55 37.54
49.26 50.04 49.58 54.26 54.20 52.97 43.63 36.23 38.46 43.53 43.90 43.92 38.03 41.08 36.84 39.22 38.99 38.09 38.82 38.87 38.02 38.85 39.93 37.51 32.54 40.10 39.83 38.50 38.47 37.31 40.57 33.16 32.31 24.72 24.36 30.29 32.98 35.35 37.17 36.68 37.47 37.10 36.10 35.51 36.03
47.83 42.37 47.71 53.95 54.42 46.33 36.08 36.98 39.82 44.29 45.32 42.04 40.04 38.94 39.46 38.00 39.16 37.51 38.20 41.56 42.58 41.24 39.83 40.27 36.40 36.70 38.89 36.45 36.60 35.94 32.97 33.60 33.21 31.21 26.61 25.57 31.37 39.96 37.08 36.52 35.36 34.04 33.12 33.34 33.92
45.71 35.65 48.87 53.52 42.44 42.71 37.57 39.31 41.35 41.36 43.95 42.50 42.42 40.99 38.86 39.11 36.94 36.90 36.18 39.83 44.21 42.56 37.87 41.44 36.76 31.85 34.58 41.11 39.99 37.47 36.16 36.64 30.07 28.45 31.19 30.21 30.95 38.20 36.28 35.51 33.59 31.40 31.71 32.72 33.23
41.26 40.52 48.14 50.41 34.89 37.26 39.97 39.39 41.11 40.06 40.47 40.01 39.23 40.82 40.86 37.21 33.29 36.71 37.77 42.16 43.11 41.82 39.16 39.75 34.27 29.99 31.46 35.85 36.46 35.27 37.32 36.56 36.44 34.33 29.67 27.39 29.94 35.92 33.42 32.22 31.26 30.07 30.50 31.11 31.97
39.18 32.76 39.52 44.17 43.40 38.04 36.00 35.72 35.88 40.08 39.95 41.03 39.55 40.55 38.02 35.44 37.35 34.18 35.12 39.20 41.00 40.74 41.32 39.79 34.71 31.29 25.97 30.77 34.69 32.43 34.58 35.21 33.08 29.17 29.20 29.75 31.79 35.57 37.91 36.51 31.12 30.14 30.49 30.74 30.07
36.95 32.24 35.94 34.17 36.26 38.17 37.51 35.15 32.74 32.83 37.65 38.82 36.00 36.99 34.09 31.20 32.23 32.57 35.51 35.62 38.26 37.99 37.83 36.94 30.69 32.02 32.47 33.69 33.47 32.84 31.19 31.50 29.46 29.82 24.78 27.56 28.01 32.25 35.12 33.23 29.97 29.54 30.50 29.83 28.83
32.94 32.93 34.94 33.03 33.69 34.28 34.99 33.09 31.74 32.61 33.95 32.52 32.35 34.01 33.25 30.12 31.72 30.00 32.02 32.24 31.09 34.90 33.88 35.03 28.30 30.07 27.65 31.07 30.81 28.51 29.84 30.23 29.79 29.70 28.64 28.67 28.23 34.63 29.50 29.29 28.59 28.73 28.90 29.67 29.20
35.64 36.54 34.45 29.96 29.93 30.40 30.64 32.16 30.09 32.61 32.43 32.20 30.94 29.93 28.68 31.21 32.92 32.25 33.14 32.32 32.11 29.85 29.48 29.46 27.75 25.34 21.07 27.35 26.39 21.52 25.37 27.59 28.92 31.00 29.68 24.84 28.44 26.30 24.34 26.67 27.99 28.62 28.95 29.13 29.49
MSLP
1021.45 1021.29 1021.08 1020.97 1020.82 1020.67 1020.50 1020.35 1020.19 1020.03 1019.85 1019.66 1019.41 1019.13 1018.76 1018.52 1018.16 1017.84 1016.76 1015.72 1015.83 1016.41 1016.53 1016.86 1016.89 1016.87 1016.80 1016.77 1016.91 1016.72 1015.60 1014.66 1014.28 1014.21 1013.35 1013.79 1013.73 1013.94 1013.73 1013.29 1013.17 1012.88 1012.15 1011.93 1013.28
1021.47 1021.38 1021.17 1020.99 1020.79 1020.68 1020.52 1020.33 1020.12 1019.98 1019.75 1019.59 1019.39 1019.12 1018.86 1018.59 1017.90 1016.72 1015.50 1015.58 1015.75 1016.11 1016.21 1016.25 1016.51 1016.76 1016.53 1016.70 1016.78 1016.22 1015.43 1014.42 1014.15 1013.95 1013.61 1013.61 1013.68 1013.53 1013.50 1012.61 1012.04 1012.00 1011.79 1012.25 1013.15
1021.39 1021.26 1021.16 1021.03 1020.79 1020.56 1020.39 1020.25 1019.94 1019.72 1019.57 1019.44 1019.25 1018.99 1018.77 1018.51 1017.52 1015.51 1015.33 1015.67 1015.97 1016.07 1016.00 1016.20 1016.31 1016.43 1016.41 1016.61 1016.33 1016.08 1014.95 1014.40 1014.15 1014.07 1014.20 1013.84 1013.69 1013.71 1012.88 1011.48 1011.31 1011.02 1010.82 1011.27 1012.15
1021.26 1021.22 1021.03 1020.88 1020.71 1020.44 1020.20 1020.07 1019.83 1019.48 1019.23 1019.14 1019.04 1018.86 1018.57 1018.15 1017.00 1015.59 1015.44 1015.54 1016.01 1016.14 1016.27 1016.42 1016.43 1016.35 1016.25 1016.14 1016.07 1015.99 1015.04 1014.71 1014.24 1014.34 1014.53 1014.13 1013.69 1013.17 1012.64 1010.78 1010.50 1010.52 1010.83 1011.11 1011.26
1021.19 1021.06 1020.95 1020.74 1020.55 1020.33 1020.09 1019.78 1019.55 1019.28 1019.04 1018.87 1018.80 1018.69 1018.24 1017.67 1016.19 1015.77 1015.82 1015.98 1016.16 1016.25 1016.05 1016.17 1016.22 1016.21 1016.01 1016.00 1016.18 1015.80 1014.86 1014.58 1014.36 1014.55 1014.41 1014.11 1012.88 1012.66 1011.31 1010.83 1010.46 1010.43 1010.65 1010.60 1010.49
1020.97 1020.89 1020.79 1020.63 1020.41 1020.12 1019.78 1019.44 1019.11 1018.87 1018.67 1018.53 1018.56 1018.61 1018.15 1017.28 1015.67 1015.85 1016.05 1016.46 1016.27 1016.21 1016.12 1016.12 1015.82 1016.13 1016.04 1016.02 1016.03 1015.45 1015.13 1014.58 1014.38 1014.16 1013.93 1013.82 1012.01 1012.42 1010.24 1010.42 1010.03 1009.90 1009.79 1009.70 1009.87
1020.88 1020.81 1020.71 1020.51 1020.20 1019.91 1019.62 1019.24 1018.88 1018.53 1018.25 1018.07 1018.19 1018.21 1017.69 1016.19 1015.79 1016.00 1016.15 1016.30 1016.33 1016.15 1016.29 1016.48 1016.32 1016.17 1016.19 1015.97 1016.02 1015.82 1015.26 1014.20 1013.35 1013.42 1013.64 1013.58 1012.23 1011.03 1009.79 1010.13 1009.78 1008.97 1008.76 1008.84 1008.83
1020.90 1020.73 1020.60 1020.34 1020.04 1019.61 1019.26 1018.91 1018.57 1018.26 1018.08 1018.04 1018.11 1017.93 1016.70 1016.01 1015.98 1016.17 1016.24 1016.50 1016.57 1016.55 1016.47 1016.55 1016.55 1016.39 1016.30 1016.17 1016.00 1015.67 1015.35 1013.77 1012.40 1013.33 1013.43 1013.39 1011.30 1009.84 1009.83 1009.97 1009.33 1008.86 1008.16 1007.90 1007.49
1020.71 1020.66 1020.54 1020.26 1019.91 1019.34 1019.00 1018.67 1018.52 1018.27 1018.07 1018.31 1018.32 1017.56 1016.35 1016.33 1016.25 1016.31 1016.21 1016.16 1016.51 1016.67 1016.71 1016.77 1016.55 1016.39 1016.36 1015.81 1015.50 1014.96 1013.83 1013.34 1013.01 1012.59 1013.19 1013.20 1011.24 1010.23 1010.13 1009.89 1008.80 1008.25 1007.73 1007.37 1007.37
1020.57 1020.51 1020.33 1020.13 1019.78 1019.27 1018.83 1018.52 1018.46 1018.38 1018.37 1018.29 1017.85 1017.88 1016.13 1016.09 1016.20 1016.33 1016.38 1016.36 1016.41 1016.64 1016.80 1016.81 1016.71 1016.20 1016.04 1015.56 1014.03 1013.37 1013.46 1013.21 1012.98 1012.25 1012.46 1012.30 1011.21 1010.94 1010.01 1009.50 1008.37 1007.65 1006.94 1007.42 1006.90
1020.41 1020.28 1020.18 1019.95 1019.62 1019.20 1018.53 1018.55 1018.70 1018.52 1017.87 1017.53 1017.19 1016.74 1016.18 1016.29 1016.42 1016.54 1016.54 1016.55 1016.47 1016.54 1016.31 1016.60 1016.27 1015.32 1014.49 1014.32 1013.70 1013.87 1013.49 1012.91 1012.50 1012.62 1012.61 1011.21 1010.45 1010.12 1009.48 1008.46 1007.55 1007.00 1007.24 1007.08 1007.15
1020.13 1020.13 1020.06 1019.95 1019.65 1019.18 1018.84 1019.12 1020.01 1020.35 1018.54 1016.92 1016.65 1016.53 1016.32 1016.25 1016.37 1016.56 1016.73 1016.69 1016.61 1016.39 1016.82 1017.06 1015.73 1014.88 1014.74 1014.94 1014.78 1014.27 1013.77 1013.04 1012.40 1012.32 1012.70 1011.23 1010.20 1009.26 1008.45 1007.74 1006.87 1006.75 1006.92 1007.42 1007.59
1020.01 1019.94 1019.87 1019.90 1019.70 1019.44 1019.86 1020.31 1020.50 1020.25 1019.42 1017.08 1016.83 1016.68 1016.57 1016.49 1016.54 1016.74 1016.74 1016.55 1016.47 1016.66 1016.50 1015.66 1014.87 1015.13 1015.45 1015.36 1014.83 1014.35 1014.08 1012.90 1012.73 1012.64 1012.25 1011.63 1009.69 1008.85 1007.67 1006.91 1006.75 1006.97 1007.03 1007.95 1008.52
1019.75 1019.67 1019.59 1019.61 1020.08 1020.05 1020.20 1020.66 1020.73 1020.64 1019.22 1017.15 1016.58 1016.47 1016.71 1016.52 1016.89 1017.14 1017.00 1016.78 1016.53 1016.27 1016.43 1016.05 1015.65 1015.60 1015.67 1015.33 1015.16 1014.51 1013.94 1013.99 1013.74 1013.58 1012.27 1012.28 1008.98 1008.50 1007.38 1006.63 1006.78 1006.67 1007.47 1008.36 1009.31
1019.52 1019.55 1019.35 1019.41 1019.62 1020.00 1020.29 1020.56 1020.83 1020.55 1018.54 1016.78 1016.39 1016.07 1016.54 1016.62 1016.66 1017.02 1017.26 1016.76 1016.51 1016.29 1016.46 1015.19 1015.46 1015.74 1015.78 1015.31 1015.42 1014.71 1014.60 1014.58 1014.35 1013.83 1013.14 1012.02 1011.18 1007.87 1007.35 1006.96 1007.30 1007.85 1008.54 1009.97 1010.81
1019.56 1019.51 1019.28 1019.56 1019.94 1020.23 1020.37 1020.68 1020.52 1019.68 1017.42 1016.30 1016.01 1015.99 1016.22 1016.69 1017.03 1017.21 1016.91 1016.92 1016.69 1016.37 1016.42 1015.45 1015.91 1015.63 1014.87 1014.99 1015.37 1015.47 1015.25 1014.91 1014.65 1014.10 1012.28 1010.94 1010.61 1008.25 1007.75 1007.71 1008.10 1009.46 1010.84 1011.71 1012.66
1019.58 1019.55 1019.43 1019.44 1019.76 1020.23 1020.22 1020.26 1020.00 1018.55 1016.92 1016.15 1016.23 1016.15 1016.06 1016.33 1016.74 1016.98 1016.84 1016.77 1016.35 1016.03 1015.48 1015.03 1015.17 1015.16 1015.18 1015.14 1015.31 1015.29 1015.43 1014.54 1013.82 1013.59 1011.44 1011.27 1010.83 1009.47 1008.76 1009.28 1010.19 1010.94 1012.36 1013.23 1013.72
1019.68 1019.73 1019.64 1019.46 1019.57 1019.95 1019.94 1019.90 1018.80 1017.18 1016.34 1016.20 1015.99 1016.16 1016.15 1016.17 1016.30 1016.44 1016.53 1015.98 1016.25 1016.18 1015.47 1014.78 1013.73 1014.63 1014.79 1014.30 1013.93 1014.56 1014.41 1014.25 1013.76 1013.04 1011.92 1011.92 1009.21 1008.37 1008.91 1010.40 1011.23 1011.82 1012.55 1013.40 1014.16
1019.65 1019.69 1020.02 1019.55 1019.65 1019.87 1020.25 1019.62 1017.65 1016.60 1016.05 1015.84 1015.79 1015.88 1016.21 1016.29 1016.64 1016.75 1016.27 1015.69 1015.72 1015.90 1015.83 1015.03 1013.66 1014.49 1014.60 1014.29 1014.44 1014.56 1014.52 1014.04 1013.74 1013.63 1012.79 1010.73 1009.23 1009.21 1009.39 1011.21 1012.58 1013.69 1014.28 1014.98 1015.69
1020.02 1019.85 1019.47 1019.45 1019.93 1019.84 1020.13 1018.82 1017.61 1016.93 1016.48 1016.43 1016.14 1015.98 1015.63 1016.41 1016.77 1016.95 1016.79 1016.06 1015.84 1016.14 1016.12 1016.73 1016.05 1015.13 1014.84 1014.83 1014.59 1014.63 1014.32 1014.40 1014.56 1013.65 1012.29 1010.60 1009.51 1009.06 1010.59 1012.27 1013.86 1014.62 1015.34 1015.84 1015.71
1019.87 1019.70 1019.53 1019.58 1019.63 1020.29 1019.12 1017.93 1017.24 1016.92 1017.14 1017.07 1016.49 1016.47 1016.30 1016.77 1017.31 1017.39 1016.77 1016.54 1016.20 1016.63 1016.95 1016.99 1017.59 1015.45 1015.54 1014.80 1014.21 1014.85 1014.64 1014.75 1014.55 1013.94 1012.77 1011.26 1009.67 1009.27 1010.93 1012.56 1014.46 1015.48 1015.94 1016.49 1016.39
1019.75 1019.98 1019.50 1019.62 1019.89 1019.36 1018.50 1017.60 1017.36 1017.44 1017.50 1017.49 1017.01 1016.82 1017.03 1017.65 1017.51 1017.47 1016.63 1016.55 1016.76 1017.16 1017.03 1017.02 1016.85 1016.20 1014.55 1014.18 1014.43 1014.65 1014.64 1014.40 1014.05 1013.53 1012.99 1012.31 1011.00 1011.98 1013.07 1014.58 1015.76 1016.99 1017.28 1017.50 1017.46
1019.69 1019.91 1019.63 1019.67 1019.24 1018.51 1018.10 1017.78 1017.44 1017.74 1017.63 1017.61 1017.39 1017.24 1017.56 1017.68 1018.28 1017.84 1017.27 1017.16 1017.24 1017.68 1017.44 1018.00 1017.66 1016.54 1015.56 1014.75 1015.31 1015.40 1014.91 1014.67 1014.44 1014.24 1013.33 1012.74 1012.47 1013.55 1014.60 1015.51 1016.18 1016.93 1017.59 1017.98 1018.11
1020.27 1020.10 1020.20 1019.68 1019.27 1018.62 1018.43 1017.91 1017.83 1017.83 1017.80 1017.88 1017.70 1017.92 1018.31 1018.39 1018.70 1018.32 1018.12 1018.09 1018.15 1018.32 1018.66 1018.94 1018.35 1017.90 1016.90 1015.76 1016.00 1016.34 1016.14 1015.97 1015.61 1014.69 1014.00 1013.72 1013.39 1013.94 1014.00 1014.69 1016.05 1017.03 1017.28 1017.52 1018.00
1020.40 1020.09 1019.81 1019.57 1019.38 1019.19 1018.89 1018.53 1018.40 1018.41 1018.47 1018.27 1018.30 1018.52 1019.23 1019.09 1019.13 1019.11 1019.20 1019.31 1018.51 1019.12 1019.57 1019.47 1018.51 1018.05 1017.14 1016.76 1016.59 1016.32 1016.27 1015.85 1015.47 1015.39 1015.22 1014.11 1014.17 1013.83 1014.27 1015.03 1016.01 1016.73 1017.02 1017.43 1017.62
1020.52 1020.50 1020.53 1020.13 1019.59 1019.36 1019.30 1018.76 1019.24 1019.54 1019.62 1019.44 1019.07 1019.52 1020.04 1020.14 1020.34 1020.52 1020.73 1020.23 1020.02 1019.89 1019.94 1019.82 1018.94 1018.59 1017.47 1017.21 1016.94 1016.56 1016.23 1015.69 1015.40 1015.23 1014.72 1014.52 1013.95 1014.17 1015.62 1015.96 1016.44 1016.59 1016.74 1016.92 1016.96
1020.86 1020.99 1020.35 1020.61 1020.42 1020.31 1019.40 1019.27 1019.87 1020.20 1020.68 1020.58 1020.71 1020.88 1021.09 1021.26 1021.69 1021.89 1021.67 1021.52 1021.27 1021.25 1020.73 1020.55 1019.93 1019.41 1017.76 1017.82 1017.19 1015.90 1014.90 1015.10 1014.73 1014.38 1014.42 1014.55 1014.83 1015.89 1016.51 1016.50 1016.50 1016.62 1016.59 1016.40 1016.32
Wind_Speed
10 10 11 11 11 11 11 11 11 11 11 12 13 13 12 12 7 3 6 3 5 13 8 9 3 3 2 3 1 1 4 5 4 5 2 4 5 4 3 9 5 8 9 9 4
8 8 9 9 9 9 9 9 9 10 11 11 12 12 13 12 3 7 1 4 9 14 10 12 8 6 3 3 3 5 4 5 4 5 6 5 5 6 6 13 15 12 16 12 5
5 6 7 8 8 9 9 9 9 9 9 10 11 12 12 7 6 2 1 9 13 8 6 4 7 5 5 3 6 5 7 6 7 11 7 8 8 4 9 15 15 14 13 9 10
4 6 7 7 9 9 9 10 10 9 9 8 8 11 13 3 6 2 4 11 12 7 9 7 7 5 5 7 5 6 11 9 4 4 4 7 5 9 14 26 22 20 16 14 15
5 5 6 7 8 10 11 11 11 11 10 8 7 7 3 2 7 3 6 9 10 8 9 8 7 5 7 5 4 9 9 10 11 9 10 11 21 17 21 24 24 20 16 17 16
5 6 7 8 9 11 12 14 14 13 13 9 5 5 3 7 3 5 8 7 5 9 8 8 6 5 3 6 9 1 7 12 10 14 13 11 23 3 13 11 15 13 17 15 14
5 5 7 8 9 11 13 14 15 15 12 8 6 3 3 12 3 5 5 2 4 6 5 3 4 6 3 5 3 4 11 16 15 11 9 9 13 16 20 8 15 19 16 13 13
5 5 7 8 10 12 12 13 10 8 7 3 8 4 7 2 4 4 4 3 3 2 1 2 4 2 4 1 2 6 4 10 7 4 3 9 18 20 13 7 13 18 21 21 25
5 6 8 10 12 13 13 11 2 8 9 10 2 3 6 4 2 2 2 4 6 3 4 5 3 3 3 7 8 7 12 13 13 6 3 11 11 14 10 15 26 24 24 22 20
5 6 8 10 11 14 15 2 4 3 3 2 2 3 3 1 2 3 1 7 4 8 5 3 3 6 4 8 12 15 12 11 11 10 8 17 20 20 24 23 25 26 24 18 17
6 5 7 9 12 14 7 2 3 2 1 3 7 6 4 2 1 2 1 4 4 3 8 4 8 12 18 19 20 13 17 21 21 18 16 22 21 19 21 23 25 23 18 14 11
4 4 6 9 11 11 2 4 3 3 9 6 8 8 1 1 3 3 3 6 5 6 6 4 11 17 9 6 11 16 18 21 20 15 5 17 22 26 22 23 21 18 14 11 8
1 1 4 7 10 3 4 2 1 1 5 6 1 2 1 5 5 2 5 4 4 7 11 17 10 4 8 12 16 16 15 20 21 17 14 13 13 3 7 13 12 11 8 2 5
4 3 1 5 2 0 1 2 2 1 6 3 2 1 2 1 2 1 1 1 3 6 6 9 4 6 6 13 12 17 12 15 14 8 10 8 12 10 13 14 7 5 3 11 14
4 4 3 3 2 2 3 5 5 2 8 1 3 3 1 3 4 3 1 2 6 5 5 4 4 5 7 9 5 7 3 2 2 7 10 4 9 3 2 5 4 8 11 15 17
5 3 7 3 0 3 5 5 3 4 8 2 2 2 2 1 1 1 2 2 1 3 4 16 1 4 5 4 5 1 5 3 1 5 9 8 7 3 3 1 3 11 14 15 15
4 1 3 2 3 5 4 3 3 7 1 2 1 1 1 2 2 3 3 4 5 5 8 4 6 3 3 5 3 5 5 9 8 7 11 5 5 7 11 5 9 12 13 13 13
3 0 2 0 6 6 2 2 8 3 6 1 1 1 3 1 2 4 3 8 6 3 7 10 18 8 9 9 10 10 9 8 7 12 17 6 15 10 9 12 14 16 15 16 15
3 1 2 2 6 2 1 6 6 4 5 6 9 14 14 2 3 3 4 11 4 10 9 13 18 2 4 1 4 7 9 5 7 10 11 15 24 11 7 8 11 12 12 12 11
2 3 3 1 6 3 4 9 8 3 1 1 9 6 10 8 8 5 5 2 0 3 5 4 11 3 1 0 5 6 3 9 5 8 17 14 18 14 10 6 5 8 10 11 12
2 2 1 4 4 3 7 9 8 4 5 5 8 10 9 4 6 5 8 5 4 2 3 4 7 10 3 8 17 7 7 8 6 6 6 6 12 3 8 7 6 7 8 10 11
3 2 2 6 6 4 9 6 5 8 1 6 5 10 13 10 10 10 11 9 5 7 11 12 5 11 25 18 5 4 14 15 12 9 10 13 15 7 10 8 7 6 5 6 8
5 2 2 2 7 9 6 6 7 8 9 4 6 6 2 6 6 11 11 0 4 4 5 3 4 5 5 7 3 5 8 14 12 6 20 19 5 7 9 7 6 6 4 3 5
2 4 1 2 1 7 11 10 10 2 5 7 7 5 5 9 9 11 11 3 2 4 3 1 5 15 17 20 15 10 9 5 4 6 7 8 10 12 15 10 2 3 3 2 2
0 3 1 6 8 10 7 2 3 3 1 1 2 7 3 6 5 11 8 5 2 2 3 4 7 13 17 20 20 19 19 23 21 19 13 19 21 25 23 11 2 2 1 2 2
3 3 2 2 0 5 11 11 16 14 8 7 11 12 7 10 12 15 10 8 12 7 8 2 12 16 20 16 13 13 18 23 23 23 25 26 27 10 2 1 2 4 6 7 5
1 1 0 5 5 7 7 10 3 5 2 3 4 1 3 6 4 3 6 6 6 6 7 7 9 12 21 18 20 17 21 23 25 25 23 23 12 5 1 6 7 7 10 10 8
Wind_Direction
44 40 37 34 31 27 22 16 11 4 355 349 344 338 336 339 311 181 240 186 170 153 118 133 135 124 144 108 94 222 234 239 243 211 237 176 243 164 298 274 225 208 248 285 128
39 29 26 22 18 11 8 6 0 354 348 341 336 330 330 335 273 249 247 170 152 157 144 166 166 161 163 144 174 227 238 243 234 223 252 269 244 285 257 264 256 256 250 243 215
27 20 12 6 1 355 351 345 340 336 337 334 330 326 327 315 284 227 130 169 156 168 155 143 144 175 201 195 186 178 242 245 236 241 255 277 269 242 260 268 262 274 288 278 236
1 356 356 350 343 338 337 330 321 312 317 317 320 322 321 258 301 80 129 153 154 154 135 142 159 184 218 221 181 235 244 240 262 213 218 262 292 258 245 263 277 284 288 280 264
333 338 334 333 333 330 327 323 313 306 303 303 307 326 297 204 252 88 121 141 153 165 180 172 181 191 225 225 196 235 252 248 245 248 249 272 262 263 265 266 278 278 273 266 268
317 328 333 331 326 326 322 319 315 308 302 290 280 304 179 250 71 134 125 141 181 182 177 178 217 208 245 232 222 304 263 273 272 254 242 241 267 277 250 269 280 275 274 274 261
300 322 329 325 319 315 313 314 314 309 302 271 208 206 205 254 65 133 138 152 172 183 170 210 154 193 160 256 271 323 298 293 261 251 236 219 264 233 267 272 274 284 285 285 269
301 314 323 325 318 313 314 320 324 331 328 182 165 192 250 63 133 143 149 89 105 105 212 155 168 208 234 351 260 267 249 280 299 163 184 203 271 284 304 298 285 289 287 284 283
301 320 331 327 322 318 325 326 79 53 94 126 181 244 259 140 182 89 207 159 120 106 70 112 169 213 187 240 268 222 270 260 289 237 161 210 277 287 286 292 290 287 283 285 293
300 313 324 323 324 323 334 260 170 147 150 241 129 236 189 301 129 119 93 150 132 134 120 153 159 213 210 215 249 273 262 254 264 283 261 281 266 274 282 283 277 284 283 295 291
291 309 326 330 328 334 346 236 248 192 219 256 268 268 274 61 138 77 132 136 119 176 195 168 204 216 235 230 249 285 271 274 277 286 291 287 294 294 285 277 279 280 292 289 311
283 317 333 331 331 332 325 41 49 2 295 249 254 267 332 339 308 126 164 187 186 211 130 168 235 236 267 279 256 260 270 276 278 277 280 285 295 291 283 274 271 285 293 303 329
145 10 355 334 329 11 20 53 87 125 255 287 256 247 317 192 232 191 197 156 184 188 206 241 268 242 217 248 258 254 262 269 280 307 276 295 275 256 293 272 297 276 269 336 35
145 122 21 318 233 64 88 111 136 7 272 244 193 132 157 159 195 307 14 199 183 264 228 254 308 236 223 250 254 274 280 270 285 301 290 5 295 300 273 284 323 40 89 93 55
152 157 140 349 118 240 100 140 141 217 289 156 171 111 162 227 122 85 355 160 233 201 201 261 189 163 206 235 186 272 9 300 283 283 304 258 264 308 239 248 173 22 74 54 34
95 148 142 85 36 63 130 144 222 229 244 256 146 124 146 40 24 81 102 59 68 198 250 265 15 221 223 164 200 328 275 240 208 284 263 310 235 13 264 227 92 91 73 50 39
52 75 160 141 125 141 142 254 239 232 24 177 19 103 125 170 195 209 161 187 230 252 259 204 215 222 209 220 159 184 263 298 277 231 267 68 289 283 282 7 25 81 68 49 45
27 37 231 202 137 152 181 155 232 217 243 84 90 126 295 244 189 160 214 268 218 248 287 286 283 198 176 229 264 197 205 215 257 269 287 303 263 251 235 87 66 56 47 40 37
130 100 268 235 146 141 175 220 253 224 231 232 270 291 282 248 263 249 231 278 280 197 261 299 273 98 237 131 226 156 217 282 267 260 276 269 269 252 237 70 63 60 60 54 42
125 163 208 124 155 120 185 246 237 226 89 272 241 228 263 259 271 268 283 95 264 168 103 8 298 262 261 156 212 230 318 254 221 255 246 247 257 252 166 124 87 66 40 31 33
136 158 98 169 136 188 218 222 244 235 277 251 249 259 262 267 202 231 232 290 254 253 233 202 202 273 287 228 263 228 230 227 270 258 261 252 241 306 146 125 103 48 35 24 22
149 193 124 179 176 193 226 205 221 256 281 260 268 249 256 273 274 265 255 243 301 301 277 260 258 248 271 283 284 283 265 257 247 241 225 249 253 95 113 128 117 101 60 33 26
159 123 5 262 203 209 214 235 246 224 233 227 244 222 220 256 272 254 257 182 319 274 282 37 266 275 270 233 141 221 261 256 274 298 250 250 237 116 124 127 122 128 125 98 358
150 142 203 240 241 225 229 250 235 125 235 218 244 240 245 254 248 270 273 305 35 341 96 79 245 248 261 274 307 273 258 288 267 263 312 272 293 285 275 288 115 150 119 119 17
145 195 335 184 221 225 208 207 216 231 294 274 237 233 282 263 290 252 270 308 252 36 282 226 256 265 271 268 272 261 262 265 264 271 268 285 283 282 290 319 299 357 219 243 293
151 163 117 151 107 179 220 239 250 249 250 243 263 270 286 258 259 288 294 264 271 282 279 261 270 279 270 271 259 263 263 263 266 268 263 264 267 299 65 4 277 318 320 274 293
125 35 152 144 162 180 204 221 169 164 121 82 92 350 229 258 172 251 239 265 248 261 271 268 277 271 268 276 285 264 246 260 266 265 268 272 295 58 17 306 303 300 306 291 287